{"data":{"norad_id":56496,"epoch":"2026-05-24T18:53:01.180608Z","epoch_age_seconds":96660,"freshness":"FRESH","line1":"1 56496U 23064BA  26144.78681922  .00000080  00000+0  14526-4 0  9994","line2":"2 56496  69.9992 272.4822 0003676 267.5882  92.4856 14.98330866167638","mean_motion":14.98330866,"eccentricity":0.0003676,"inclination_deg":69.9992,"raan_deg":272.4822,"arg_perigee_deg":267.5882,"mean_anomaly_deg":92.4856,"bstar":1.4526e-5,"rev_number":16763,"period_min":96.106943578108,"perigee_km":569.49832298988,"apogee_km":574.60810283441,"semimajor_km":6950.1902129121,"source":"CELESTRAK","updated_at":"2026-05-25T13:38:18.076601Z"}}